Weather History for Batman, Turkey

Change the Weather History Date:

Saturday, October 6, 2012

  Actual Average (LTCC) Record (LTCC)
Temperature  
Mean Temperature 70 °F -  
Max Temperature 86 °F 82 °F 89 °F (1998)
Min Temperature 53 °F 54 °F 48 °F (2013)
Cooling Degree Days 4    
Growing Degree Days 20 (Base 50)    
Moisture  
Dew Point 41 °F    
Average Humidity 39    
Maximum Humidity 72    
Minimum Humidity 18    
Precipitation  
Precipitation 0.00 in - - ()
Sea Level Pressure  
Sea Level Pressure 30.02 in    
Wind  
Wind Speed 4 mph ()    
Max Wind Speed 12 mph    
Max Gust Speed -    
Visibility 6.2 miles    
Events      
Averages and records for this station are not official NWS values.
T = Trace of Precipitation, MM = Missing Value Source: Averaged Metar Reports

Daily Weather History Graph

Daily Weather History Graph

Search for Another Location

Airport:

Trip Planner

Search our weather history database for the weather conditions in past years. The results will help you decide how hot, cold, wet, or windy it might be!

Date:

Astronomy

Oct. 06, 2012 Rise Set
Actual Time 6:15 AM EEST 5:50 PM EEST
Civil Twilight 5:49 AM EEST 6:17 PM EEST
Nautical Twilight 5:19 AM EEST 6:47 PM EEST
Astronomical Twilight 4:48 AM EEST 7:17 PM EEST
Moon 9:51 PM EEST (10/6) 11:49 AM EEST (10/6)
Length of Visible Light 12h 27m
Length of Day
11h 34m
Waning Gibbous, 68% of the Moon is Illuminated
Oct 6
Waning Gibbous
Oct 8
Last Quarter
Oct 15
New
Oct 22
First Quarter
Oct 29
Full

Hourly Weather History & Observations

Time (EEST) Temp. Dew Point Humidity Pressure Visibility Wind Dir Wind Speed Gust Speed Precip Events Conditions
12:20 AM 62.6 °F 41.0 °F 45% 29.98 in - North 4.6 mph - N/A   Clear
12:50 AM 60.8 °F 41.0 °F 48% 29.98 in - NNE 6.9 mph - N/A   Clear
1:20 AM 60.8 °F 41.0 °F 48% 30.01 in - NE 6.9 mph - N/A   Clear
1:50 AM 60.8 °F 41.0 °F 48% 30.01 in - NNE 4.6 mph - N/A   Clear
2:20 AM 59.0 °F 41.0 °F 51% 30.01 in - NNE 4.6 mph - N/A   Clear
3:20 AM 57.2 °F 41.0 °F 55% 30.01 in - NNE 3.5 mph - N/A   Clear
3:50 AM 55.4 °F 42.8 °F 63% 30.01 in - North 3.5 mph - N/A   Clear
4:20 AM 55.4 °F 44.6 °F 67% 30.01 in - NNE 2.3 mph - N/A   Clear
4:50 AM 55.4 °F 42.8 °F 63% 30.01 in - NNE 4.6 mph - N/A   Clear
5:20 AM 55.4 °F 42.8 °F 63% 30.01 in - North 4.6 mph - N/A   Clear
5:50 AM 53.6 °F 42.8 °F 67% 30.01 in - Calm Calm - N/A   Clear
6:20 AM 53.6 °F 44.6 °F 72% 30.04 in - Calm Calm - N/A   Clear
6:50 AM 55.4 °F 42.8 °F 63% 30.04 in - Calm Calm - N/A   Clear
7:20 AM 59.0 °F 42.8 °F 55% 30.04 in - Calm Calm - N/A   Clear
7:50 AM 62.6 °F 42.8 °F 48% 30.04 in - Variable 1.2 mph - N/A   Clear
8:20 AM 66.2 °F 42.8 °F 43% 30.04 in - Variable 2.3 mph - N/A   Clear
8:50 AM 66.2 °F 42.8 °F 43% 30.06 in - WSW 4.6 mph - N/A   Clear
9:20 AM 69.8 °F 42.8 °F 38% 30.06 in - Variable 2.3 mph - N/A   Clear
9:50 AM 75.2 °F 41.0 °F 29% 30.06 in - Variable 2.3 mph - N/A   Clear
10:20 AM 77.0 °F 41.0 °F 28% 30.06 in - Variable 2.3 mph - N/A   Clear
10:50 AM 78.8 °F 42.8 °F 28% 30.06 in - WNW 3.5 mph - N/A   Clear
11:20 AM 78.8 °F 41.0 °F 26% 30.06 in - Variable 2.3 mph - N/A   Clear
11:50 AM 80.6 °F 42.8 °F 26% 30.06 in 6.2 mi SW 11.5 mph - N/A   Mostly Cloudy
12:20 PM 82.4 °F 41.0 °F 23% 30.04 in 6.2 mi WSW 11.5 mph - N/A   Mostly Cloudy
12:50 PM 84.2 °F 37.4 °F 19% 30.04 in 6.2 mi West 9.2 mph - N/A   Mostly Cloudy
1:20 PM 84.2 °F 39.2 °F 20% 30.01 in 6.2 mi West 9.2 mph - N/A   Mostly Cloudy
1:50 PM 86.0 °F 39.2 °F 19% 30.01 in 6.2 mi West 6.9 mph - N/A   Mostly Cloudy
2:20 PM 84.2 °F 39.2 °F 20% 30.01 in 6.2 mi West 8.1 mph - N/A   Mostly Cloudy
2:50 PM 84.2 °F 39.2 °F 20% 30.01 in 6.2 mi West 8.1 mph - N/A   Mostly Cloudy
3:20 PM 84.2 °F 37.4 °F 19% 30.01 in 6.2 mi West 6.9 mph - N/A   Mostly Cloudy
3:50 PM 84.2 °F 35.6 °F 18% 30.01 in 6.2 mi West 6.9 mph - N/A   Mostly Cloudy
4:20 PM 84.2 °F 35.6 °F 18% 30.01 in 6.2 mi WNW 6.9 mph - N/A   Mostly Cloudy
4:50 PM 84.2 °F 35.6 °F 18% 29.98 in 6.2 mi NNE 3.5 mph - N/A   Mostly Cloudy
5:20 PM 82.4 °F 37.4 °F 20% 29.98 in 6.2 mi South 3.5 mph - N/A   Scattered Clouds
5:50 PM 78.8 °F 39.2 °F 24% 29.98 in 6.2 mi South 5.8 mph - N/A   Scattered Clouds
6:20 PM 77.0 °F 41.0 °F 28% 29.98 in 6.2 mi SW 3.5 mph - N/A   Scattered Clouds
6:50 PM 73.4 °F 41.0 °F 31% 30.01 in 6.2 mi WSW 4.6 mph - N/A   Scattered Clouds
7:20 PM 71.6 °F 41.0 °F 33% 30.01 in 6.2 mi SW 5.8 mph - N/A   Partly Cloudy
7:50 PM 71.6 °F 41.0 °F 33% 30.01 in 6.2 mi South 3.5 mph - N/A   Partly Cloudy
8:20 PM 69.8 °F 41.0 °F 35% 30.01 in 6.2 mi South 5.8 mph - N/A   Partly Cloudy
8:50 PM 69.8 °F 42.8 °F 38% 30.01 in 6.2 mi South 5.8 mph - N/A   Scattered Clouds
9:20 PM 66.2 °F 44.6 °F 46% 30.04 in 6.2 mi Variable 1.2 mph - N/A   Scattered Clouds
9:50 PM 68.0 °F 44.6 °F 43% 30.04 in 6.2 mi WSW 4.6 mph - N/A   Scattered Clouds
10:20 PM 66.2 °F 41.0 °F 40% 30.04 in 6.2 mi SSW 4.6 mph - N/A   Scattered Clouds
10:50 PM 64.4 °F 44.6 °F 49% 30.01 in 6.2 mi North 3.5 mph - N/A   Mostly Cloudy
11:20 PM 66.2 °F 42.8 °F 43% 30.01 in 6.2 mi NNE 4.6 mph - N/A   Mostly Cloudy
11:50 PM 66.2 °F 44.6 °F 46% 30.01 in 6.2 mi NNE 10.4 mph - N/A   Mostly Cloudy